DLH50A EDDH-EIKN

Flight info

Callsign DLH50A
Flight time 1h 43m
Altitude 36000
Route ELSOB3G ELSOB DCT BEDUM DCT MIMVA L602 NALAX L46 GETNO DCT TUGSI DCT EDONO EDONO1B
Aircraft A320/M-SDE3FGHIRWY/LB1

Departure

Time 2026-04-30 19:23
Airport Hamburg Helmut Schmidt Airport (EDDH)

Arrival

Time 2026-04-30 21:07
Airport Ireland West Airport Knock (EIKN)
Time Latitude Longitude Altitude Speed Heading
2026-04-30 18:26 53.63075 10.00375 46 ft 0 kts 99°
2026-04-30 19:11 53.63075 10.00373 51 ft 2 kts 99°
2026-04-30 19:11 53.63081 10.00316 48 ft 2 kts 99°
2026-04-30 19:11 53.63084 10.00288 45 ft 2 kts 99°
2026-04-30 19:12 53.63087 10.00260 46 ft 2 kts 99°
2026-04-30 19:12 53.63090 10.00232 48 ft 2 kts 108°
2026-04-30 19:12 53.63098 10.00207 47 ft 2 kts 140°
2026-04-30 19:13 53.63114 10.00195 45 ft 0 kts 179°
2026-04-30 19:14 53.63104 10.00195 49 ft 4 kts 179°
2026-04-30 19:14 53.63086 10.00192 47 ft 4 kts 186°
2026-04-30 19:15 53.63064 10.00176 50 ft 6 kts 207°
2026-04-30 19:15 53.63007 10.00117 48 ft 4 kts 212°
2026-04-30 19:15 53.62959 10.00067 49 ft 7 kts 212°
2026-04-30 19:16 53.62928 10.00015 50 ft 6 kts 239°
2026-04-30 19:16 53.62911 9.99960 50 ft 8 kts 243°
2026-04-30 19:16 53.62898 9.99919 50 ft 0 kts 243°
2026-04-30 19:18 53.62877 9.99850 50 ft 8 kts 243°
2026-04-30 19:18 53.62860 9.99747 49 ft 5 kts 317°
2026-04-30 19:18 53.62877 9.99735 48 ft 0 kts 332°
2026-04-30 19:22 53.63070 9.99566 47 ft 68 kts 333°
2026-04-30 19:23 53.65670 9.97348 735 ft 169 kts 335°
2026-04-30 19:24 53.67841 9.95506 1778 ft 191 kts 334°
2026-04-30 19:24 53.69091 9.94431 2091 ft 212 kts 334°
2026-04-30 19:24 53.71418 9.91282 3412 ft 226 kts 288°
2026-04-30 19:25 53.70407 9.82638 5078 ft 275 kts 248°
2026-04-30 19:26 53.69009 9.76508 6668 ft 288 kts 248°
2026-04-30 19:26 53.67637 9.70023 8247 ft 297 kts 250°
2026-04-30 19:26 53.66969 9.66702 9088 ft 301 kts 251°
2026-04-30 19:27 53.65627 9.59909 10306 ft 309 kts 251°
2026-04-30 19:27 53.64786 9.52652 10434 ft 328 kts 262°
2026-04-30 19:28 53.64455 9.48852 10439 ft 334 kts 262°
2026-04-30 19:28 53.63764 9.41149 10823 ft 339 kts 261°
2026-04-30 19:29 53.63024 9.33033 12056 ft 357 kts 261°
2026-04-30 19:29 53.62644 9.28866 12732 ft 362 kts 261°
2026-04-30 19:30 53.61462 9.15954 14359 ft 375 kts 261°
2026-04-30 19:30 53.60663 9.07337 14434 ft 375 kts 261°
2026-04-30 19:31 53.59849 8.98658 14434 ft 375 kts 261°
2026-04-30 19:31 53.59436 8.94314 14434 ft 375 kts 261°
2026-04-30 19:31 53.58605 8.85580 15553 ft 381 kts 261°
2026-04-30 19:32 53.58183 8.81155 16192 ft 383 kts 261°
2026-04-30 19:32 53.57757 8.76710 16837 ft 386 kts 261°
2026-04-30 19:32 53.57332 8.72244 17475 ft 389 kts 261°
2026-04-30 19:32 53.56902 8.67725 18081 ft 392 kts 261°
2026-04-30 19:33 53.56468 8.63190 18688 ft 395 kts 261°
2026-04-30 19:33 53.56030 8.58667 19211 ft 397 kts 261°
2026-04-30 19:33 53.55575 8.54004 19760 ft 400 kts 261°
2026-04-30 19:33 53.55124 8.49442 20296 ft 402 kts 261°
2026-04-30 19:34 53.54662 8.44796 20836 ft 403 kts 261°
2026-04-30 19:34 53.54199 8.40133 21359 ft 405 kts 261°
2026-04-30 19:34 53.53263 8.30738 22392 ft 409 kts 261°
2026-04-30 19:35 53.52792 8.26014 22895 ft 411 kts 261°
2026-04-30 19:35 53.52320 8.21260 23396 ft 413 kts 261°
2026-04-30 19:35 53.51839 8.16478 23887 ft 415 kts 261°
2026-04-30 19:35 53.51354 8.11692 24298 ft 417 kts 261°
2026-04-30 19:36 53.50863 8.06864 24698 ft 419 kts 261°
2026-04-30 19:36 53.50369 8.02035 25098 ft 421 kts 261°
2026-04-30 19:36 53.49368 7.92303 25879 ft 424 kts 261°
2026-04-30 19:37 53.48866 7.87409 26262 ft 426 kts 261°
2026-04-30 19:37 53.48361 7.82499 26646 ft 428 kts 261°
2026-04-30 19:37 53.47847 7.77560 26995 ft 430 kts 261°
2026-04-30 19:37 53.47325 7.72607 27369 ft 432 kts 260°
2026-04-30 19:38 53.46799 7.67646 27752 ft 433 kts 260°
2026-04-30 19:38 53.46270 7.62661 28114 ft 435 kts 260°
2026-04-30 19:38 53.45738 7.57657 28472 ft 437 kts 260°
2026-04-30 19:38 53.45201 7.52632 28822 ft 438 kts 260°
2026-04-30 19:39 53.44660 7.47576 29176 ft 440 kts 260°
2026-04-30 19:39 53.44117 7.42521 29512 ft 442 kts 261°
2026-04-30 19:39 53.43571 7.37433 29868 ft 444 kts 261°
2026-04-30 19:39 53.43022 7.32325 30185 ft 446 kts 261°
2026-04-30 19:40 53.42467 7.27197 30503 ft 448 kts 260°
2026-04-30 19:40 53.41913 7.22119 30757 ft 449 kts 260°
2026-04-30 19:40 53.41346 7.16955 30992 ft 452 kts 260°
2026-04-30 19:40 53.40773 7.11762 31203 ft 454 kts 260°
2026-04-30 19:41 53.40195 7.06545 31450 ft 456 kts 260°
2026-04-30 19:41 53.39613 7.01316 31713 ft 457 kts 260°
2026-04-30 19:41 53.39029 6.96094 32069 ft 455 kts 260°
2026-04-30 19:41 53.38443 6.90870 32400 ft 455 kts 260°
2026-04-30 19:42 53.37859 6.85673 32759 ft 453 kts 260°
2026-04-30 19:42 53.37274 6.80500 33143 ft 451 kts 260°
2026-04-30 19:42 53.36689 6.75341 33458 ft 451 kts 260°
2026-04-30 19:42 53.35963 6.70245 33788 ft 450 kts 250°
2026-04-30 19:43 53.34482 6.65647 34127 ft 449 kts 232°
2026-04-30 19:43 53.32271 6.61972 34424 ft 449 kts 215°
2026-04-30 19:43 53.29521 6.59539 34672 ft 448 kts 198°
2026-04-30 19:44 53.23384 6.58054 35154 ft 447 kts 187°
2026-04-30 19:44 53.20390 6.56720 35383 ft 447 kts 203°
2026-04-30 19:44 53.17726 6.54090 35614 ft 447 kts 219°
2026-04-30 19:44 53.15592 6.50363 35871 ft 445 kts 235°
2026-04-30 19:45 53.14140 6.45834 36067 ft 444 kts 252°
2026-04-30 19:45 53.13484 6.40906 36250 ft 442 kts 267°
2026-04-30 19:45 53.13436 6.35794 36365 ft 440 kts 271°
2026-04-30 19:46 53.13456 6.25640 36374 ft 438 kts 271°
2026-04-30 19:46 53.13468 6.15508 36377 ft 437 kts 271°
2026-04-30 19:47 53.13466 6.05393 36373 ft 437 kts 270°
2026-04-30 19:47 53.13450 5.95264 36378 ft 437 kts 270°
2026-04-30 19:48 53.13429 5.85140 36382 ft 437 kts 270°
2026-04-30 19:48 53.13407 5.75029 36383 ft 437 kts 270°
2026-04-30 19:49 53.13367 5.64896 36384 ft 437 kts 270°
2026-04-30 19:49 53.13289 5.49725 36359 ft 437 kts 269°
2026-04-30 19:50 53.13228 5.39591 36361 ft 437 kts 269°
2026-04-30 19:50 53.13161 5.29468 36346 ft 438 kts 269°
2026-04-30 19:51 53.13088 5.19310 36342 ft 439 kts 269°
2026-04-30 19:51 53.13005 5.09176 36342 ft 440 kts 269°
2026-04-30 19:52 53.12916 4.98976 36349 ft 440 kts 268°
2026-04-30 19:52 53.12814 4.88786 36347 ft 440 kts 267°
2026-04-30 19:53 53.12700 4.78578 36354 ft 440 kts 268°
2026-04-30 19:53 53.12578 4.68386 36348 ft 440 kts 267°
2026-04-30 19:54 53.12445 4.58204 36360 ft 440 kts 268°
2026-04-30 19:54 53.12310 4.48009 36353 ft 440 kts 267°
2026-04-30 19:55 53.12166 4.37818 36351 ft 440 kts 268°
2026-04-30 19:55 53.12010 4.27645 36350 ft 440 kts 267°
2026-04-30 19:56 53.11847 4.17455 36349 ft 440 kts 268°
2026-04-30 19:56 53.11676 4.07329 36349 ft 440 kts 267°
2026-04-30 19:57 53.11500 3.97147 36345 ft 440 kts 265°
2026-04-30 19:57 53.11317 3.86960 36347 ft 440 kts 267°
2026-04-30 19:58 53.11114 3.76790 36341 ft 440 kts 266°
2026-04-30 19:58 53.10903 3.66625 36337 ft 439 kts 265°
2026-04-30 19:59 53.10685 3.56463 36335 ft 439 kts 267°
2026-04-30 20:00 53.10341 3.41248 36316 ft 439 kts 265°
2026-04-30 20:00 53.10173 3.32813 36313 ft 439 kts 269°
2026-04-30 20:01 53.11767 3.17766 36296 ft 441 kts 281°
2026-04-30 20:01 53.13096 3.07781 36286 ft 442 kts 281°
2026-04-30 20:02 53.15061 2.92788 36330 ft 441 kts 280°
2026-04-30 20:03 53.17008 2.77783 36318 ft 441 kts 280°
2026-04-30 20:03 53.18299 2.67781 36321 ft 441 kts 280°
2026-04-30 20:04 53.19585 2.57790 36316 ft 441 kts 279°
2026-04-30 20:05 53.21483 2.42829 36313 ft 441 kts 279°
2026-04-30 20:05 53.23368 2.27800 36314 ft 441 kts 279°
2026-04-30 20:06 53.24609 2.17772 36317 ft 441 kts 279°
2026-04-30 20:06 53.25847 2.07753 36317 ft 440 kts 279°
2026-04-30 20:07 53.27072 1.97734 36323 ft 440 kts 279°
2026-04-30 20:08 53.28897 1.82680 36319 ft 439 kts 279°
2026-04-30 20:08 53.30094 1.72701 36316 ft 439 kts 279°
2026-04-30 20:09 53.31274 1.62753 36307 ft 439 kts 278°
2026-04-30 20:09 53.33077 1.47722 36313 ft 440 kts 279°
2026-04-30 20:10 53.35274 1.32798 36303 ft 441 kts 282°
2026-04-30 20:11 53.37499 1.17866 36297 ft 441 kts 281°
2026-04-30 20:11 53.38915 1.07881 36296 ft 441 kts 281°
2026-04-30 20:12 53.41024 0.92887 36297 ft 441 kts 280°
2026-04-30 20:13 53.42430 0.82889 36290 ft 441 kts 280°
2026-04-30 20:13 53.43833 0.72871 36289 ft 441 kts 280°
2026-04-30 20:14 53.45218 0.62900 36289 ft 441 kts 280°
2026-04-30 20:14 53.46608 0.52808 36290 ft 441 kts 280°
2026-04-30 20:15 53.47971 0.42817 36297 ft 442 kts 279°
2026-04-30 20:15 53.49342 0.32758 36288 ft 442 kts 279°
2026-04-30 20:16 53.50709 0.22665 36285 ft 442 kts 279°
2026-04-30 20:16 53.52054 0.12580 36281 ft 442 kts 279°
2026-04-30 20:17 53.53390 0.02498 36281 ft 442 kts 279°
2026-04-30 20:17 53.54729 -0.07614 36284 ft 443 kts 279°
2026-04-30 20:18 53.56058 -0.17730 36277 ft 443 kts 279°
2026-04-30 20:18 53.57370 -0.27810 36273 ft 444 kts 278°
2026-04-30 20:19 53.58691 -0.38017 36273 ft 444 kts 278°
2026-04-30 20:19 53.60000 -0.48185 36273 ft 444 kts 278°
2026-04-30 20:20 53.61287 -0.58261 36276 ft 444 kts 278°
2026-04-30 20:20 53.62580 -0.68457 36273 ft 444 kts 278°
2026-04-30 20:21 53.63855 -0.78645 36272 ft 444 kts 278°
2026-04-30 20:21 53.65118 -0.88832 36263 ft 444 kts 278°
2026-04-30 20:22 53.66380 -0.99026 36261 ft 444 kts 278°
2026-04-30 20:22 53.67638 -1.09234 36273 ft 444 kts 278°
2026-04-30 20:23 53.68890 -1.19443 36267 ft 444 kts 278°
2026-04-30 20:23 53.70121 -1.29587 36263 ft 444 kts 277°
2026-04-30 20:24 53.71340 -1.39799 36259 ft 444 kts 277°
2026-04-30 20:24 53.72551 -1.50012 36256 ft 444 kts 277°
2026-04-30 20:25 53.74337 -1.65336 36270 ft 443 kts 277°
2026-04-30 20:26 53.75994 -1.80673 36266 ft 441 kts 276°
2026-04-30 20:26 53.77618 -1.95928 36255 ft 441 kts 276°
2026-04-30 20:27 53.79787 -2.16350 36243 ft 441 kts 276°
2026-04-30 20:28 53.81913 -2.36777 36226 ft 440 kts 276°
2026-04-30 20:30 53.84516 -2.62245 36249 ft 440 kts 276°
2026-04-30 20:31 53.87569 -2.92904 36187 ft 440 kts 276°
2026-04-30 20:32 53.90051 -3.18480 36197 ft 439 kts 276°
2026-04-30 20:33 53.91513 -3.33822 36197 ft 439 kts 276°
2026-04-30 20:34 53.92937 -3.49165 36193 ft 438 kts 273°
2026-04-30 20:35 53.93498 -3.64517 36181 ft 436 kts 270°
2026-04-30 20:35 53.93999 -3.79917 36190 ft 435 kts 269°
2026-04-30 20:36 53.94327 -3.90178 36185 ft 435 kts 269°
2026-04-30 20:37 53.94789 -4.05561 36173 ft 435 kts 269°
2026-04-30 20:37 53.95087 -4.15811 36166 ft 435 kts 269°
2026-04-30 20:38 53.95375 -4.26061 36171 ft 435 kts 269°
2026-04-30 20:38 53.95663 -4.36315 36159 ft 435 kts 268°
2026-04-30 20:39 53.96074 -4.51703 36147 ft 435 kts 268°
2026-04-30 20:40 53.96451 -4.67085 36144 ft 435 kts 268°
2026-04-30 20:40 53.96702 -4.77347 36150 ft 435 kts 268°
2026-04-30 20:41 53.97060 -4.92775 36142 ft 435 kts 268°
2026-04-30 20:41 53.97290 -5.03051 36144 ft 435 kts 268°
2026-04-30 20:42 53.97510 -5.13254 36138 ft 435 kts 268°
2026-04-30 20:43 53.97818 -5.28686 36161 ft 435 kts 268°
2026-04-30 20:43 53.98005 -5.38984 35824 ft 435 kts 268°
2026-04-30 20:44 53.98191 -5.49234 35326 ft 432 kts 268°
2026-04-30 20:44 53.98282 -5.54321 35081 ft 430 kts 268°
2026-04-30 20:44 53.98456 -5.64433 34597 ft 426 kts 267°
2026-04-30 20:45 53.98617 -5.74431 33665 ft 421 kts 267°
2026-04-30 20:45 53.98694 -5.79379 33167 ft 417 kts 267°
2026-04-30 20:45 53.98767 -5.84286 32670 ft 414 kts 266°
2026-04-30 20:46 53.98973 -5.98791 31209 ft 405 kts 266°
2026-04-30 20:46 53.99035 -6.03561 30741 ft 402 kts 266°
2026-04-30 20:47 53.99135 -6.11421 29933 ft 398 kts 266°
2026-04-30 20:47 53.99194 -6.16094 29485 ft 393 kts 265°
2026-04-30 20:48 53.99302 -6.25292 28623 ft 384 kts 265°
2026-04-30 20:48 53.99370 -6.31260 28069 ft 379 kts 265°
2026-04-30 20:48 53.99403 -6.34277 27787 ft 377 kts 265°
2026-04-30 20:48 53.99448 -6.38711 27354 ft 374 kts 264°
2026-04-30 20:49 53.99493 -6.43106 26934 ft 370 kts 264°
2026-04-30 20:49 53.99538 -6.47469 26489 ft 368 kts 264°
2026-04-30 20:49 53.99580 -6.51804 26082 ft 366 kts 264°
2026-04-30 20:50 53.99657 -6.60412 25195 ft 363 kts 264°
2026-04-30 20:50 53.99690 -6.64697 24736 ft 363 kts 264°
2026-04-30 20:50 53.99721 -6.68923 24286 ft 362 kts 264°
2026-04-30 20:50 53.99752 -6.73203 23827 ft 362 kts 264°
2026-04-30 20:51 53.99782 -6.77485 23308 ft 362 kts 264°
2026-04-30 20:51 53.99840 -6.86001 22421 ft 358 kts 264°
2026-04-30 20:51 53.99868 -6.90232 21936 ft 358 kts 264°
2026-04-30 20:52 53.99894 -6.94446 21504 ft 356 kts 264°
2026-04-30 20:52 53.99917 -6.98639 21057 ft 354 kts 264°
2026-04-30 20:52 53.99950 -7.06975 20190 ft 352 kts 263°
2026-04-30 20:53 53.99964 -7.11130 19758 ft 351 kts 264°
2026-04-30 20:53 53.99979 -7.15279 19325 ft 351 kts 264°
2026-04-30 20:53 53.99993 -7.19424 18899 ft 350 kts 263°
2026-04-30 20:54 53.99910 -7.27653 18053 ft 347 kts 262°
2026-04-30 20:54 53.99833 -7.31735 17660 ft 344 kts 261°
2026-04-30 20:54 53.99750 -7.35785 17266 ft 342 kts 261°
2026-04-30 20:55 53.99592 -7.43827 16488 ft 339 kts 262°
2026-04-30 20:55 53.99518 -7.47818 16104 ft 337 kts 262°
2026-04-30 20:55 53.99446 -7.51793 15725 ft 336 kts 262°
2026-04-30 20:56 53.99303 -7.59696 14964 ft 333 kts 262°
2026-04-30 20:56 53.99229 -7.63628 14588 ft 332 kts 262°
2026-04-30 20:56 53.99190 -7.71474 13815 ft 336 kts 271°
2026-04-30 20:57 53.99567 -7.75401 13397 ft 336 kts 274°
2026-04-30 20:57 53.99959 -7.79308 13010 ft 334 kts 274°
2026-04-30 20:57 54.00349 -7.83192 12607 ft 333 kts 274°
2026-04-30 20:58 54.01118 -7.90909 11807 ft 329 kts 272°
2026-04-30 20:58 54.01168 -7.94684 11414 ft 320 kts 258°
2026-04-30 20:58 54.00781 -7.98369 11023 ft 315 kts 253°
2026-04-30 20:58 54.00355 -8.02020 10632 ft 314 kts 253°
2026-04-30 20:59 53.99512 -8.09253 9818 ft 305 kts 253°
2026-04-30 20:59 53.99110 -8.12712 9420 ft 293 kts 253°
2026-04-30 21:00 53.98325 -8.19434 8615 ft 288 kts 253°
2026-04-30 21:00 53.97586 -8.25833 7836 ft 265 kts 253°
2026-04-30 21:01 53.96908 -8.31737 7088 ft 245 kts 254°
2026-04-30 21:01 53.96534 -8.34550 6508 ft 245 kts 250°
2026-04-30 21:01 53.95827 -8.40272 5386 ft 246 kts 253°
2026-04-30 21:02 53.95511 -8.43084 5061 ft 238 kts 254°
2026-04-30 21:02 53.95204 -8.45793 4746 ft 230 kts 253°
2026-04-30 21:02 53.94903 -8.48420 4426 ft 223 kts 253°
2026-04-30 21:02 53.94610 -8.50975 4144 ft 218 kts 253°
2026-04-30 21:03 53.94325 -8.53460 3877 ft 210 kts 252°
2026-04-30 21:03 53.94054 -8.55828 3589 ft 199 kts 252°
2026-04-30 21:03 53.93795 -8.58086 3323 ft 190 kts 252°
2026-04-30 21:03 53.93550 -8.60214 3096 ft 177 kts 252°
2026-04-30 21:04 53.93324 -8.62167 2834 ft 166 kts 252°
2026-04-30 21:04 53.93108 -8.64033 2619 ft 157 kts 251°
2026-04-30 21:04 53.92689 -8.67630 2203 ft 155 kts 251°
2026-04-30 21:05 53.92482 -8.69419 2004 ft 154 kts 252°
2026-04-30 21:05 53.92282 -8.71213 1782 ft 155 kts 253°
2026-04-30 21:05 53.92061 -8.73004 1556 ft 154 kts 252°
2026-04-30 21:05 53.91870 -8.74787 1346 ft 155 kts 251°
2026-04-30 21:06 53.91668 -8.76578 1159 ft 153 kts 245°
2026-04-30 21:06 53.91451 -8.78338 917 ft 152 kts 248°
2026-04-30 21:06 53.91240 -8.80085 735 ft 151 kts 250°
2026-04-30 21:06 53.91053 -8.81654 639 ft 99 kts 259°
2026-04-30 21:07 53.90972 -8.82353 631 ft 41 kts 259°
2026-04-30 21:07 53.90916 -8.82828 615 ft 41 kts 258°
2026-04-30 21:07 53.90860 -8.83285 603 ft 36 kts 258°
2026-04-30 21:07 53.90814 -8.83526 599 ft 11 kts 197°
2026-04-30 21:08 53.90781 -8.83589 598 ft 6 kts 298°
2026-04-30 21:08 53.90823 -8.83576 599 ft 9 kts 47°
2026-04-30 21:08 53.90848 -8.83410 600 ft 22 kts 78°
2026-04-30 21:08 53.90877 -8.83159 605 ft 19 kts 74°
2026-04-30 21:09 53.90903 -8.82948 611 ft 22 kts 79°
2026-04-30 21:09 53.90935 -8.82673 618 ft 22 kts 79°
2026-04-30 21:09 53.90965 -8.82415 627 ft 21 kts 79°
2026-04-30 21:09 53.90991 -8.82198 629 ft 17 kts 78°
2026-04-30 21:10 53.91024 -8.81915 633 ft 31 kts 78°
2026-04-30 21:10 53.91064 -8.81581 642 ft 26 kts 78°
2026-04-30 21:10 53.91097 -8.81312 646 ft 21 kts 78°
2026-04-30 21:10 53.91119 -8.81121 654 ft 10 kts 78°
2026-04-30 21:11 53.91131 -8.81025 657 ft 11 kts 78°
2026-04-30 21:11 53.91150 -8.80882 661 ft 11 kts 61°
2026-04-30 21:11 53.91213 -8.80879 665 ft 10 kts 345°
2026-04-30 21:11 53.91284 -8.80901 660 ft 10 kts 347°
2026-04-30 21:12 53.91354 -8.80926 658 ft 10 kts 349°
2026-04-30 21:12 53.91413 -8.80962 660 ft 8 kts 302°
2026-04-30 21:12 53.91406 -8.80998 659 ft 2 kts 212°
2026-04-30 21:12 53.91390 -8.80992 658 ft 0 kts 166°
2026-04-30 21:13 53.91385 -8.80990 659 ft 0 kts 166°
2026-04-30 21:13 53.91384 -8.80990 659 ft 0 kts 167°